�������l�o���
Date,Time,MP-1(��Sv/h),MP-2(��Sv/h),MP-3(��Sv/h),MP-4(��Sv/h),MP-5(��Sv/h),MP-6(��Sv/h),MP-7(��Sv/h),MP-8(��Sv/h),����,����(m/s),���J
2021/06/01,00:00,0.628,0.933,0.588,1.127,0.804,0.374,0.647,0.606,�k�k��,2.3,��
2021/06/01,00:10,0.630,0.931,0.587,1.130,0.807,0.374,0.647,0.606,�k�k��,3.0,��
2021/06/01,00:20,0.628,0.933,0.587,1.127,0.807,0.373,0.647,0.605,�k�k��,3.2,��
2021/06/01,00:30,0.628,0.933,0.586,1.129,0.809,0.375,0.648,0.606,�k�k��,3.9,��
2021/06/01,00:40,0.626,0.932,0.587,1.127,0.807,0.373,0.648,0.606,�k,5.2,��
2021/06/01,00:50,0.627,0.933,0.589,1.129,0.808,0.375,0.647,0.606,�k,3.8,��
2021/06/01,01:00,0.628,0.933,0.586,1.128,0.809,0.374,0.647,0.605,�k�k��,4.6,��
2021/06/01,01:10,0.628,0.932,0.588,1.129,0.807,0.373,0.647,0.605,�k�k��,5.8,��
2021/06/01,01:20,0.628,0.932,0.587,1.126,0.808,0.373,0.646,0.606,�k�k��,4.9,��
2021/06/01,01:30,0.627,0.932,0.588,1.126,0.808,0.373,0.648,0.606,�k�k��,5.3,��
2021/06/01,01:40,0.626,0.932,0.587,1.125,0.807,0.373,0.646,0.606,�k�k��,5.4,��
2021/06/01,01:50,0.628,0.931,0.586,1.125,0.808,0.372,0.646,0.606,�k�k��,5.2,��
2021/06/01,02:00,0.626,0.931,0.586,1.127,0.807,0.372,0.646,0.605,�k�k��,4.8,��
2021/06/01,02:10,0.626,0.931,0.586,1.126,0.808,0.374,0.645,0.607,�k�k��,5.1,��
2021/06/01,02:20,0.627,0.932,0.586,1.128,0.806,0.373,0.646,0.605,�k�k��,5.2,��
2021/06/01,02:30,0.626,0.931,0.587,1.128,0.807,0.371,0.646,0.606,�k�k��,5.2,��
2021/06/01,02:40,0.627,0.930,0.586,1.127,0.807,0.372,0.645,0.606,�k�k��,4.9,��
2021/06/01,02:50,0.626,0.930,0.585,1.127,0.806,0.371,0.644,0.606,�k,4.0,��
2021/06/01,03:00,0.625,0.930,0.586,1.126,0.807,0.374,0.646,0.605,�k�k��,3.7,��
2021/06/01,03:10,0.627,0.931,0.585,1.127,0.807,0.371,0.644,0.605,�k�k��,4.6,��
2021/06/01,03:20,0.627,0.930,0.585,1.126,0.807,0.373,0.646,0.607,�k�k��,4.5,��
2021/06/01,03:30,0.626,0.929,0.586,1.126,0.807,0.373,0.644,0.606,�k,4.9,��
2021/06/01,03:40,0.625,0.929,0.588,1.127,0.807,0.372,0.647,0.605,�k,4.2,��
2021/06/01,03:50,0.625,0.929,0.585,1.126,0.806,0.371,0.645,0.605,�k,4.5,��
2021/06/01,04:00,0.625,0.932,0.587,1.128,0.806,0.370,0.644,0.606,�k,4.6,��
2021/06/01,04:10,0.626,0.929,0.588,1.125,0.806,0.372,0.645,0.606,�k,4.8,��
2021/06/01,04:20,0.626,0.929,0.585,1.126,0.806,0.372,0.643,0.606,�k,3.8,��
2021/06/01,04:30,0.626,0.929,0.587,1.128,0.805,0.373,0.644,0.605,�k,3.9,��
2021/06/01,04:40,0.624,0.929,0.586,1.127,0.805,0.370,0.642,0.606,�k,3.7,��
2021/06/01,04:50,0.626,0.928,0.585,1.126,0.806,0.371,0.643,0.605,�k,3.4,��
2021/06/01,05:00,0.625,0.930,0.587,1.127,0.806,0.370,0.644,0.605,�k,3.5,��
2021/06/01,05:10,0.627,0.930,0.587,1.125,0.804,0.373,0.645,0.605,�k,3.7,��
2021/06/01,05:20,0.624,0.931,0.585,1.129,0.806,0.371,0.644,0.606,�k,4.5,��
2021/06/01,05:30,0.626,0.931,0.584,1.129,0.806,0.373,0.644,0.607,�k,5.0,��
2021/06/01,05:40,0.626,0.930,0.586,1.127,0.806,0.373,0.644,0.605,�k,5.5,��
2021/06/01,05:50,0.627,0.927,0.586,1.126,0.808,0.370,0.644,0.605,�k,6.2,��
2021/06/01,06:00,0.624,0.929,0.586,1.128,0.805,0.371,0.645,0.606,�k,4.3,��
2021/06/01,06:10,0.628,0.930,0.585,1.129,0.808,0.371,0.645,0.605,�k�k��,4.4,��
2021/06/01,06:20,0.626,0.929,0.585,1.128,0.806,0.371,0.644,0.605,�k,2.9,��
2021/06/01,06:30,0.626,0.928,0.586,1.127,0.805,0.372,0.643,0.605,�k,2.9,��
2021/06/01,06:40,0.625,0.930,0.586,1.127,0.804,0.372,0.644,0.605,�k,3.2,��
2021/06/01,06:50,0.623,0.930,0.586,1.130,0.806,0.370,0.644,0.604,�k,2.8,��
2021/06/01,07:00,0.624,0.929,0.587,1.128,0.805,0.371,0.644,0.605,�k�k��,3.6,��
2021/06/01,07:10,0.624,0.929,0.586,1.126,0.805,0.371,0.644,0.603,�k�k��,4.0,��
2021/06/01,07:20,0.625,0.927,0.587,1.127,0.806,0.370,0.645,0.603,�k�k��,3.5,��
2021/06/01,07:30,0.625,0.929,0.586,1.127,0.804,0.370,0.643,0.604,�k�k��,2.9,��
2021/06/01,07:40,0.624,0.928,0.587,1.126,0.807,0.370,0.643,0.605,�k�k��,4.0,��
2021/06/01,07:50,0.623,0.928,0.585,1.127,0.806,0.372,0.643,0.605,�k�k��,3.3,��
2021/06/01,08:00,0.624,0.928,0.585,1.126,0.805,0.370,0.642,0.604,�k�k��,3.8,��
2021/06/01,08:10,0.623,0.926,0.586,1.127,0.808,0.371,0.645,0.603,�k�k��,4.1,��
2021/06/01,08:20,0.625,0.926,0.585,1.125,0.806,0.371,0.643,0.602,�k��,4.2,��
2021/06/01,08:30,0.625,0.926,0.584,1.128,0.804,0.369,0.643,0.604,�k��,3.0,��
2021/06/01,08:40,0.625,0.926,0.584,1.128,0.804,0.369,0.643,0.602,�k��,2.9,��
2021/06/01,08:50,0.624,0.926,0.584,1.127,0.803,0.370,0.645,0.601,�k��,3.3,��
2021/06/01,09:00,0.626,0.925,0.587,1.126,0.804,0.369,0.644,0.601,���k��,2.6,��
2021/06/01,09:10,0.624,0.923,0.583,1.126,0.804,0.370,0.645,0.603,�k��,2.8,��
2021/06/01,09:20,0.625,0.923,0.583,1.128,0.805,0.369,0.643,0.602,���k��,3.4,��
2021/06/01,09:30,0.624,0.924,0.585,1.129,0.804,0.371,0.645,0.603,��,3.5,��
2021/06/01,09:40,0.626,0.927,0.583,1.130,0.803,0.369,0.646,0.603,��,3.9,��
2021/06/01,09:50,0.627,0.928,0.582,1.128,0.805,0.371,0.645,0.603,���쓌,3.5,��
2021/06/01,10:00,0.624,0.926,0.580,1.126,0.803,0.371,0.644,0.603,��,3.6,��
2021/06/01,10:10,0.625,0.924,0.581,1.128,0.797,0.371,0.646,0.602,��,4.1,��
2021/06/01,10:20,0.625,0.925,0.583,1.127,0.797,0.369,0.645,0.600,��,3.4,��
2021/06/01,10:30,0.626,0.926,0.583,1.127,0.803,0.369,0.645,0.603,�쓌,3.8,��
2021/06/01,10:40,0.625,0.927,0.584,1.128,0.807,0.371,0.645,0.603,���쓌,3.3,��
2021/06/01,10:50,0.625,0.927,0.584,1.129,0.807,0.371,0.646,0.603,�쓌,3.4,��
2021/06/01,11:00,0.627,0.928,0.583,1.127,0.805,0.370,0.644,0.601,�쓌,4.7,��
2021/06/01,11:10,0.627,0.928,0.585,1.128,0.802,0.371,0.646,0.603,���쓌,3.7,��
2021/06/01,11:20,0.628,0.927,0.585,1.125,0.808,0.370,0.645,0.606,�쓌,5.3,��
2021/06/01,11:30,0.627,0.929,0.583,1.126,0.809,0.370,0.645,0.605,�쓌,5.2,��
2021/06/01,11:40,0.627,0.927,0.585,1.126,0.809,0.371,0.645,0.602,�쓌,5.4,��
2021/06/01,11:50,0.627,0.931,0.585,1.126,0.809,0.371,0.645,0.604,�쓌,5.2,��
2021/06/01,12:00,0.626,0.930,0.585,1.124,0.809,0.371,0.645,0.605,���쓌,4.4,��
2021/06/01,12:10,0.626,0.932,0.586,1.125,0.809,0.371,0.646,0.603,�쓌,5.6,��
2021/06/01,12:20,0.626,0.932,0.585,1.129,0.810,0.371,0.646,0.604,�쓌,3.9,��
2021/06/01,12:30,0.628,0.930,0.587,1.127,0.810,0.371,0.645,0.604,�쓌,3.8,��
2021/06/01,12:40,0.628,0.930,0.587,1.127,0.811,0.371,0.645,0.604,�쓌,4.2,��
2021/06/01,12:50,0.626,0.931,0.588,1.129,0.811,0.372,0.647,0.602,��,4.6,��
2021/06/01,13:00,0.628,0.931,0.585,1.128,0.811,0.371,0.646,0.602,�쓌,4.0,��
2021/06/01,13:10,0.626,0.930,0.586,1.127,0.812,0.373,0.647,0.605,�쓌,4.6,��
2021/06/01,13:20,0.628,0.929,0.586,1.130,0.811,0.372,0.647,0.603,��쓌,4.3,��
2021/06/01,13:30,0.627,0.929,0.584,1.128,0.814,0.371,0.647,0.605,��쓌,4.7,��
2021/06/01,13:40,0.627,0.933,0.585,1.128,0.812,0.371,0.648,0.604,��쓌,5.4,��
2021/06/01,13:50,0.626,0.931,0.585,1.130,0.811,0.372,0.647,0.604,��쓌,5.7,��
2021/06/01,14:00,0.628,0.929,0.586,1.128,0.811,0.372,0.645,0.604,��쓌,6.1,��
2021/06/01,14:10,0.625,0.932,0.587,1.128,0.813,0.370,0.647,0.603,��쓌,6.4,��
2021/06/01,14:20,0.628,0.931,0.588,1.128,0.812,0.372,0.646,0.604,��쓌,6.0,��
2021/06/01,14:30,0.627,0.929,0.586,1.130,0.813,0.373,0.645,0.603,��쓌,6.9,��
2021/06/01,14:40,0.628,0.929,0.586,1.128,0.814,0.372,0.646,0.604,��쓌,5.8,��
2021/06/01,14:50,0.629,0.929,0.585,1.127,0.813,0.372,0.646,0.605,��쓌,6.1,��
2021/06/01,15:00,0.629,0.928,0.586,1.130,0.811,0.372,0.647,0.604,��쓌,7.5,��
2021/06/01,15:10,0.628,0.930,0.585,1.128,0.813,0.371,0.646,0.605,��쓌,7.2,��
2021/06/01,15:20,0.628,0.931,0.585,1.130,0.812,0.371,0.646,0.605,��쓌,6.3,��
2021/06/01,15:30,0.628,0.933,0.586,1.128,0.811,0.372,0.645,0.603,��쓌,6.0,��
2021/06/01,15:40,0.628,0.931,0.586,1.131,0.814,0.372,0.646,0.602,��쓌,6.6,��
2021/06/01,15:50,0.627,0.931,0.586,1.132,0.813,0.371,0.649,0.604,��쓌,6.5,��
2021/06/01,16:00,0.628,0.932,0.587,1.128,0.812,0.372,0.648,0.604,��쓌,6.4,��
2021/06/01,16:10,0.628,0.931,0.585,1.128,0.812,0.373,0.647,0.604,��쓌,6.2,��
2021/06/01,16:20,0.627,0.932,0.586,1.129,0.813,0.371,0.646,0.604,��쓌,6.7,��
2021/06/01,16:30,0.630,0.934,0.587,1.132,0.812,0.370,0.644,0.603,��쓌,7.5,��
2021/06/01,16:40,0.627,0.933,0.587,1.129,0.813,0.372,0.646,0.605,��쓌,6.9,��
2021/06/01,16:50,0.629,0.934,0.588,1.131,0.814,0.372,0.646,0.603,��쓌,6.2,��
2021/06/01,17:00,0.628,0.933,0.586,1.129,0.813,0.373,0.645,0.604,��쓌,5.6,��
2021/06/01,17:10,0.629,0.933,0.586,1.129,0.812,0.373,0.644,0.601,��쓌,5.3,��
2021/06/01,17:20,0.628,0.933,0.586,1.129,0.812,0.371,0.646,0.605,��쓌,5.7,��
2021/06/01,17:30,0.626,0.932,0.586,1.129,0.813,0.372,0.645,0.604,��쓌,5.9,��
2021/06/01,17:40,0.629,0.933,0.586,1.130,0.812,0.372,0.645,0.605,��쓌,5.2,��
2021/06/01,17:50,0.628,0.935,0.585,1.134,0.811,0.371,0.646,0.604,��,6.3,��
2021/06/01,18:00,0.627,0.933,0.586,1.133,0.813,0.373,0.645,0.603,��쓌,6.9,��
2021/06/01,18:10,0.626,0.933,0.586,1.133,0.812,0.373,0.646,0.603,��쓌,6.7,��
2021/06/01,18:20,0.625,0.932,0.586,1.131,0.811,0.372,0.646,0.603,��쓌,6.1,��
2021/06/01,18:30,0.627,0.932,0.587,1.131,0.811,0.372,0.645,0.607,��쓌,5.2,��
2021/06/01,18:40,0.626,0.934,0.586,1.136,0.813,0.372,0.645,0.606,��쓌,4.2,��
2021/06/01,18:50,0.627,0.933,0.587,1.134,0.813,0.372,0.646,0.605,��쓌,4.7,��
2021/06/01,19:00,0.629,0.935,0.586,1.133,0.811,0.372,0.645,0.606,��쓌,5.0,��
2021/06/01,19:10,0.628,0.932,0.588,1.132,0.812,0.374,0.646,0.605,��쓌,4.7,��
2021/06/01,19:20,0.628,0.936,0.587,1.131,0.813,0.375,0.647,0.606,��쓌,5.1,��
2021/06/01,19:30,0.629,0.935,0.589,1.135,0.812,0.372,0.647,0.605,��쓌,5.0,��
2021/06/01,19:40,0.628,0.938,0.588,1.134,0.811,0.373,0.648,0.606,��쓌,4.8,��
2021/06/01,19:50,0.630,0.938,0.589,1.134,0.814,0.374,0.647,0.605,��쓌,5.1,��
2021/06/01,20:00,0.628,0.938,0.588,1.135,0.814,0.374,0.648,0.606,��쓌,4.6,��
2021/06/01,20:10,0.628,0.935,0.590,1.134,0.814,0.374,0.647,0.607,��쓌,4.4,��
2021/06/01,20:20,0.629,0.939,0.588,1.133,0.813,0.374,0.646,0.607,��쓌,4.7,��
2021/06/01,20:30,0.627,0.938,0.588,1.133,0.814,0.374,0.648,0.603,��쓌,4.9,��
2021/06/01,20:40,0.629,0.936,0.588,1.134,0.813,0.374,0.647,0.605,��쓌,4.5,��
2021/06/01,20:50,0.630,0.938,0.588,1.134,0.815,0.374,0.648,0.606,��쓌,4.0,��
2021/06/01,21:00,0.628,0.938,0.588,1.134,0.812,0.374,0.650,0.606,��쓌,4.4,��
2021/06/01,21:10,0.630,0.936,0.589,1.135,0.813,0.374,0.647,0.605,��쓌,4.2,��
2021/06/01,21:20,0.628,0.939,0.589,1.132,0.815,0.372,0.647,0.606,��쓌,4.0,��
2021/06/01,21:30,0.629,0.935,0.589,1.134,0.813,0.374,0.647,0.604,�쓌,2.5,��
2021/06/01,21:40,0.629,0.937,0.589,1.132,0.815,0.375,0.648,0.607,��쓌,2.0,��
2021/06/01,21:50,0.629,0.938,0.589,1.134,0.816,0.373,0.649,0.606,��쓌,2.6,��
2021/06/01,22:00,0.629,0.937,0.587,1.133,0.814,0.374,0.647,0.606,�쓌,4.1,��
2021/06/01,22:10,0.630,0.936,0.589,1.133,0.816,0.374,0.649,0.605,�쓌,2.5,��
2021/06/01,22:20,0.629,0.938,0.588,1.131,0.815,0.374,0.648,0.604,��쓌,1.7,��
2021/06/01,22:30,0.629,0.940,0.589,1.132,0.813,0.373,0.648,0.605,�쓌,1.9,��
2021/06/01,22:40,0.628,0.938,0.588,1.134,0.815,0.373,0.647,0.606,��쓌,2.6,��
2021/06/01,22:50,0.628,0.938,0.587,1.133,0.814,0.373,0.647,0.606,��쓌,3.3,��
2021/06/01,23:00,0.630,0.936,0.588,1.134,0.816,0.373,0.649,0.606,��쓌,3.3,��
2021/06/01,23:10,0.629,0.936,0.587,1.132,0.812,0.373,0.649,0.605,��쓌,4.4,��
2021/06/01,23:20,0.629,0.938,0.587,1.134,0.814,0.372,0.648,0.606,��쓌,5.7,��
2021/06/01,23:30,0.629,0.937,0.591,1.133,0.814,0.373,0.648,0.606,��,4.9,��
2021/06/01,23:40,0.628,0.937,0.589,1.133,0.812,0.373,0.649,0.606,��,5.0,��
2021/06/01,23:50,0.627,0.937,0.590,1.133,0.815,0.372,0.649,0.606,��,5.3,��
